Weather History for Independence, KS

Change the Weather History Date:

Friday, February 15, 2013

  Actual Average (KCFV) Record (KCFV)
Temperature  
Mean Temperature 34 °F -  
Max Temperature 41 °F 49 °F 71 °F (2006)
Min Temperature 26 °F 29 °F 10 °F (2007)
Degree Days  
Heating Degree Days 32    
Moisture  
Dew Point 20 °F    
Average Humidity 62    
Maximum Humidity 93    
Minimum Humidity 33    
Precipitation  
Precipitation 0.00 in - - ()
Sea Level Pressure  
Sea Level Pressure 30.34 in    
Wind  
Wind Speed 12 mph (NNW)    
Max Wind Speed 17 mph    
Max Gust Speed 25 mph    
Visibility 10 miles    
Events Snow    
Averages and records for this station are not official NWS values.
T = Trace of Precipitation, MM = Missing Value Source: NWS Daily Summary

Daily Weather History Graph

Daily Weather History Graph

Search for Another Location

Airport:

Trip Planner

Search our weather history database for the weather conditions in past years. The results will help you decide how hot, cold, wet, or windy it might be!

Date:

Astronomy

Feb. 15, 2013 Rise Set
Actual Time 7:11 AM CST 6:03 PM CST
Civil Twilight 6:44 AM CST 6:29 PM CST
Nautical Twilight 6:14 AM CST 7:00 PM CST
Astronomical Twilight 5:44 AM CST 7:30 PM CST
Moon 9:57 AM CST (2/15) 11:55 PM CST (2/15)
Length of Visible Light 11h 45m
Length of Day
10h 51m
Waxing Crescent, 30% of the Moon is Illuminated
Feb 15
Waxing Crescent
Feb 17
First Quarter
Feb 25
Full
Mar 4
Last Quarter
Mar 11
New

Hourly Weather History & Observations

Time (CST) Temp. Windchill Dew Point Humidity Pressure Visibility Wind Dir Wind Speed Gust Speed Precip Events Conditions
12:15 AM 39.2 °F 30.2 °F 26.6 °F 61% 30.23 in 10.0 mi NNW 17.3 mph 20.7 mph N/A   Scattered Clouds
12:35 AM 37.4 °F 29.3 °F 26.6 °F 65% 30.24 in 10.0 mi NNW 12.7 mph - N/A   Scattered Clouds
12:55 AM 35.6 °F 26.2 °F 26.6 °F 70% 30.25 in 10.0 mi NW 15.0 mph 20.7 mph N/A   Clear
1:15 AM 35.6 °F 26.6 °F 24.8 °F 65% 30.27 in 10.0 mi NNW 13.8 mph 19.6 mph N/A   Clear
1:35 AM 33.8 °F 24.8 °F 23.0 °F 65% 30.27 in 10.0 mi NNW 12.7 mph - N/A   Clear
1:55 AM 32.0 °F 21.6 °F 23.0 °F 69% 30.28 in 10.0 mi NNW 15.0 mph - N/A   Clear
2:35 AM 32.0 °F 21.6 °F 23.0 °F 69% 30.29 in 10.0 mi NNW 15.0 mph 24.2 mph N/A   Clear
2:55 AM 32.0 °F 21.6 °F 24.8 °F 75% 30.30 in 10.0 mi NNW 15.0 mph 25.3 mph N/A   Clear
3:15 AM 32.0 °F 22.1 °F 24.8 °F 75% 30.30 in 10.0 mi NNW 13.8 mph - N/A   Clear
3:35 AM 32.0 °F 23.0 °F 24.8 °F 75% 30.30 in 10.0 mi NW 11.5 mph - N/A   Clear
3:55 AM 30.2 °F 20.2 °F 23.0 °F 75% 30.31 in 10.0 mi NNW 12.7 mph - N/A   Clear
4:15 AM 30.2 °F 20.8 °F 24.8 °F 80% 30.31 in 10.0 mi NW 11.5 mph - N/A   Clear
4:35 AM 30.2 °F 21.9 °F 24.8 °F 80% 30.32 in 10.0 mi NW 9.2 mph - N/A   Clear
4:55 AM 30.2 °F 20.8 °F 24.8 °F 80% 30.31 in 10.0 mi NW 11.5 mph - N/A   Clear
5:15 AM 30.2 °F 18.5 °F 23.0 °F 75% 30.32 in 10.0 mi North 17.3 mph 21.9 mph N/A   Clear
5:35 AM 30.2 °F 19.8 °F 23.0 °F 75% 30.34 in 10.0 mi NNW 13.8 mph 17.3 mph N/A   Clear
5:55 AM 28.4 °F 17.5 °F 23.0 °F 80% 30.34 in 10.0 mi NNW 13.8 mph - N/A   Clear
6:15 AM 28.4 °F 17.5 °F 23.0 °F 80% 30.35 in 10.0 mi North 13.8 mph 21.9 mph N/A   Clear
6:35 AM 28.4 °F 18.0 °F 23.0 °F 80% 30.36 in 10.0 mi NNW 12.7 mph - N/A   Clear
6:55 AM 28.4 °F 18.0 °F 21.2 °F 74% 30.37 in 10.0 mi NNW 12.7 mph 16.1 mph N/A   Clear
7:15 AM 26.6 °F 15.7 °F 21.2 °F 80% 30.37 in 10.0 mi NNW 12.7 mph - N/A   Clear
7:35 AM 26.6 °F 15.2 °F 21.2 °F 80% 30.38 in 10.0 mi NNW 13.8 mph 18.4 mph N/A   Clear
7:55 AM 26.6 °F 15.7 °F 21.2 °F 80% 30.39 in 10.0 mi NNW 12.7 mph 17.3 mph N/A   Clear
8:15 AM 26.6 °F 16.2 °F 21.2 °F 80% 30.39 in 10.0 mi NNW 11.5 mph 17.3 mph N/A   Clear
8:35 AM 26.6 °F 14.7 °F 19.4 °F 74% 30.40 in 10.0 mi North 15.0 mph 19.6 mph N/A   Clear
8:55 AM 28.4 °F 16.2 °F 19.4 °F 69% 30.40 in 10.0 mi North 17.3 mph - N/A   Clear
9:15 AM 28.4 °F 16.6 °F 19.4 °F 69% 30.41 in 10.0 mi NNW 16.1 mph - N/A   Clear
9:35 AM 28.4 °F 18.0 °F 19.4 °F 69% 30.41 in 10.0 mi North 12.7 mph - N/A   Clear
9:55 AM 30.2 °F 19.8 °F 17.6 °F 60% 30.41 in 10.0 mi NNW 13.8 mph - N/A   Clear
10:15 AM 32.0 °F 22.5 °F 17.6 °F 55% 30.41 in 10.0 mi North 12.7 mph 16.1 mph N/A   Clear
10:35 AM 32.0 °F 23.6 °F 15.8 °F 51% 30.41 in 10.0 mi North 10.4 mph - N/A   Clear
10:55 AM 32.0 °F 22.5 °F 15.8 °F 51% 30.40 in 10.0 mi North 12.7 mph - N/A   Clear
11:15 AM 32.0 °F 23.6 °F 14.0 °F 48% 30.40 in 10.0 mi North 10.4 mph - N/A   Clear
11:55 AM 33.8 °F 25.3 °F 12.2 °F 41% 30.40 in 10.0 mi NNW 11.5 mph 16.1 mph N/A   Clear
12:15 PM 35.6 °F 28.0 °F 10.4 °F 35% 30.40 in 10.0 mi NNW 10.4 mph 17.3 mph N/A   Clear
12:35 PM 35.6 °F 31.7 °F 12.2 °F 38% 30.39 in 10.0 mi WNW 4.6 mph - N/A   Clear
12:55 PM 37.4 °F 32.1 °F 14.0 °F 38% 30.38 in 10.0 mi NW 6.9 mph - N/A   Clear
1:15 PM 37.4 °F 30.3 °F 12.2 °F 36% 30.37 in 10.0 mi North 10.4 mph 17.3 mph N/A   Clear
1:35 PM 37.4 °F 30.8 °F 12.2 °F 36% 30.36 in 10.0 mi NNW 9.2 mph 16.1 mph N/A   Clear
1:55 PM 37.4 °F 33.8 °F 12.2 °F 36% 30.35 in 10.0 mi North 4.6 mph - N/A   Clear
2:15 PM 37.4 °F 29.8 °F 12.2 °F 36% 30.35 in 10.0 mi NNW 11.5 mph 17.3 mph N/A   Clear
2:35 PM 39.2 °F 32.0 °F 14.0 °F 36% 30.35 in 10.0 mi West 11.5 mph 21.9 mph N/A   Clear
2:55 PM 39.2 °F 32.5 °F 12.2 °F 33% 30.35 in 10.0 mi NNW 10.4 mph 17.3 mph N/A   Clear
3:15 PM 39.2 °F 35.0 °F 12.2 °F 33% 30.34 in 10.0 mi WNW 5.8 mph 16.1 mph N/A   Scattered Clouds
3:35 PM 41.0 °F 32.8 °F 14.0 °F 33% 30.33 in 10.0 mi North 16.1 mph - N/A   Clear
3:55 PM 41.0 °F 33.5 °F 14.0 °F 33% 30.33 in 10.0 mi NW 13.8 mph - N/A   Clear
4:15 PM 39.2 °F 33.0 °F 12.2 °F 33% 30.33 in 10.0 mi North 9.2 mph 16.1 mph N/A   Clear
4:35 PM 39.2 °F 32.0 °F 14.0 °F 36% 30.33 in 10.0 mi North 11.5 mph 19.6 mph N/A   Scattered Clouds
4:55 PM 37.4 °F 29.8 °F 14.0 °F 38% 30.33 in 10.0 mi NNW 11.5 mph - N/A   Clear
5:15 PM 37.4 °F 29.3 °F 15.8 °F 41% 30.33 in 10.0 mi North 12.7 mph - N/A   Clear
5:35 PM 35.6 °F 29.2 °F 17.6 °F 48% 30.33 in 10.0 mi North 8.1 mph - N/A   Clear
5:55 PM 33.8 °F 28.6 °F 17.6 °F 52% 30.33 in 10.0 mi NNW 5.8 mph - N/A   Clear
6:15 PM 33.8 °F 28.6 °F 19.4 °F 56% 30.33 in 10.0 mi NNW 5.8 mph - N/A   Clear
6:35 PM 33.8 °F 28.6 °F 17.6 °F 52% 30.34 in 10.0 mi NNW 5.8 mph - N/A   Clear
6:55 PM 32.0 °F 26.4 °F 19.4 °F 60% 30.33 in 10.0 mi NNW 5.8 mph - N/A   Clear
7:15 PM 32.0 °F 28.7 °F 19.4 °F 60% 30.33 in 10.0 mi NW 3.5 mph - N/A   Clear
7:35 PM 32.0 °F - 23.0 °F 69% 30.34 in 10.0 mi Calm Calm - N/A   Clear
7:55 PM 32.0 °F - 19.4 °F 60% 30.33 in 10.0 mi Calm Calm - N/A   Clear
8:15 PM 30.2 °F 25.4 °F 24.8 °F 80% 30.32 in 10.0 mi South 4.6 mph - N/A   Clear
8:35 PM 30.2 °F 26.7 °F 24.8 °F 80% 30.32 in 10.0 mi SSE 3.5 mph - N/A   Clear
8:55 PM 30.2 °F 24.3 °F 23.0 °F 75% 30.31 in 10.0 mi South 5.8 mph - N/A   Clear
9:15 PM 28.4 °F 24.6 °F 23.0 °F 80% 30.31 in 10.0 mi SSW 3.5 mph - N/A   Clear
9:35 PM 28.4 °F - 23.0 °F 80% 30.31 in 10.0 mi Calm Calm - N/A   Clear
9:55 PM 28.4 °F 24.6 °F 23.0 °F 80% 30.31 in 10.0 mi SSW 3.5 mph - N/A   Mostly Cloudy
10:15 PM 28.4 °F - 26.6 °F 93% 30.31 in 10.0 mi Calm Calm - N/A   Overcast
10:35 PM 30.2 °F 22.6 °F 23.0 °F 75% 30.31 in 10.0 mi West 8.1 mph - N/A   Overcast
10:55 PM 32.0 °F 23.0 °F 23.0 °F 69% 30.33 in 10.0 mi NNW 11.5 mph - N/A   Overcast
11:15 PM 32.0 °F 21.6 °F 23.0 °F 69% 30.34 in 10.0 mi NNW 15.0 mph 21.9 mph N/A   Overcast
11:35 PM 32.0 °F 20.8 °F 28.4 °F 87% 30.35 in 3.0 mi NNW 17.3 mph - N/A Snow Light Snow
11:55 PM 32.0 °F 23.6 °F 28.4 °F 87% 30.35 in 5.0 mi NNW 10.4 mph - N/A Snow Light Snow